SCP
0 0 0 0 0 0 0 0 0 0 0 0 0 0 0 0 0 0 0 0 0 0 0 0 0 0 0 0 0 0 0 0 0 0 0 0 0 0 0 0 0 0 0 0 0
0 -0 0 0 0 0 0 0 0 0 0 0 0 0 0 0 0 0 0 0 0 0 0 0 0 0 0 0 0 0 0 0 0 0 0 0 0 0 0 0 0 0 0 0 0
0 -0 -0 -0 -0 0 0 0 0 0 0 0 0 0 0 0 0 0 0 0 0 0 0 0 0 0 0 0 0 0 0 0 0 0 0 0 0 0 0 0 0 0 0 0 0
0 0 0 0 0 0 0 0 0 0 0 0 0 0 0 0 0 0 0 0 0 0 0 0 0 0 0 0 0 0 0 0 0 0 0 0 0 0 0 0 0 0 0 0 0
0 0 0 0 0 0 0 -0 0 0 0 0 0 0 0 0 0 0 0 0 0 0 0 0 0 0 0 0 0 0 0 0 0 0 0 0 0 0 0 0 0 0 0 0 0
0 0 0 0 0 0 0 0 0 -0 -0 -0 0 0 0 0 0 0 0 0 0 0 0 0 0 0 0 0 0 0 0 0 0 0 0 0 0 0 0 0 0 0 0 0 0
0 0 0 0 0 0 0 0 0 0 0 0 0 0 0 0 0 0 0 0 0 0 0 0 0 0 0 0 0 0 0 0 0 0 0 0 0 0 0 0 0 0 0 0 0
0 0 0 0 0 0 0 0 0 0 -0 -0 0 0 0 0 0 0 0 0 0 0 0 0 0 0 0 0 0 0 0 0 0 0 0 0 0 0 0 0 0 0 0 0 0
0 0 0 0 0 0 0 0 0 -0 -0 -0 0 0 0 0 0 0 0 0 0 0 0 0 0 0 0 0 0 0 0 0 0 0 0 0 0 0 0 0 0 0 0 0 0
0 0 0 0 0 0 0 0 0 0 0 0 0 0 0 0 0 0 0 0 0 0 0 0 0 0 0 0 0 0 0 0 0 0 0 0 0 0 0 0 0 0 0 0 0
0 0 0 0 0 0 0 0 -0 -0 0 0 0 0 -0 -0 0 0 0 0 0 0 0 0 0 0 0 0 0 0 0 0 0 0 0 0 0 0 0 0 0 0 0 0 0
0 0 0 0 0 0 0 0 0 0 0 0 -0 -0 -0 0 0 0 0 0 0 0 0 0 0 0 0 0 0 0 0 0 0 0 0 0 0 0 0 0 0 0 0 0 0
0 0 0 0 0 0 0 0 0 0 0 0 -0 -0 0 0 0 0 0 0 0 0 0 0 0 0 0 0 0 0 0 0 0 0 0 0 -0 -0 0 0 0 0 0 0 0
0 0 0 0 0 0 0 0 0 0 0 0 0 0 0 -0 0 0 0 0 0 0 0 0 0 0 0 0 0 0 0 0 0 0 0 0 -0 -0 -0 0 0 0 0 0 0
0 0 0 0 0 0 0 0 0 0 0 0 0 0 0 0 0 0 -0 0 0 0 0 0 0 0 0 0 0 0 0 0 0 0 0 0 -0 -0 -0 -0 0 0 0 0 0
0 0 0 0 0 0 0 0 0 0 0 0 0 0 0 0 0 -0 -0 0 0 0 0 0 0 0 0 0 0 0 0 0 0 0 0 0 0 -0 0 -0 0 0 0 0 0
0 0 0 0 0 0 0 0 0 0 0 0 0 0 0 0 0 -0 -0 0 0 0 0 0 0 0 0 0 0 0 0 0 0 0 0 0 0 0 0 0 0 0 0 0 0
0 0 0 0 0 0 0 0 0 0 0 0 0 0 0 -0 -0 -0 -0 0 0 0 0 0 0 0 0 0 0 0 0 0 0 0 0 0 0 0 -0 -0 0 0 0 0 0
0 0 0 0 0 0 0 0 0 0 0 0 0 0 0 0 -0 -0 -0 0 0 -0 0 0 0 0 0 0 0 0 0 0 0 0 0 0 0 0 0 0 0 -0 0 0 0
0 0 0 0 0 0 0 0 0 0 0 0 0 0 0 -0 -0 -0 -0 -0 0 0 0 -0 -0 0 0 0 0 0 0 0 0 0 0 0 0 0 0 0 0 0 0 0 0
0 0 0 0 0 0 0 0 0 0 0 0 0 0 0 -0 -0 -0 -0 -0 -0 0 0 0 0 -0 0 0 0 0 0 0 0 0 0 0 0 0 -0 0 0 0 0 0 0
0 0 0 0 0 0 0 0 0 0 0 0 0 0 0 -0 -0 -0 0 -0 0 -0 0 0 -0 0 0 0 0 0 0 0 0 0 0 0 0 0 0 0 0 0 0 0 0
0 0 0 0 0 0 0 0 0 0 0 0 0 0 0 0 -0 -0 0 -0 0 0 0 0 0 0 0 0 0 0 0 0 0 0 0 0 0 0 0 0 0 0 0 0 0
0 0 0 0 0 0 0 0 0 0 0 0 0 0 0 0 -0 0 0 0 -0 -0 -0 -0 0 0 0 0 0 0 0 0 0 0 0 0 0 0 0 0 0 0 0 0 0
0 0 0 0 0 0 0 0 0 0 0 0 0 0 0 -0 -0 0 0 0 0 -0 -0 -0 0 0 0 0 0 0 0 0 0 0 0 0 0 0 0 0 0 0 0 0 0
0 0 0 0 0 0 0 0 0 -0 0 0 0 0 -0 -0 -0 0 -0 0 -0 -0 -0 -0 -0 0 0 -0 0 0 0 0 0 0 0 0 0 0 -0 -0 0 0 0 0 0
0 0 0 0 0 0 0 0 0 0 0 -0 0 -0 -0 -0 -0 -0 -0 -0 0 -0 0 -0 -0 -0 0 0 -0 0 0 0 0 0 0 0 0 0 0 0 0 0 0 0 0
Wind_Speed_500mb
27 27 29 27 25 23 22 34 40 48 48 52 53 54 53 47 44 41 39 26 36 34 28 20 20 17 14 11 17 10 15 27 35 24 18 11 15 13 10 13 14 15 6 10 23
31 36 29 33 32 29 29 23 27 34 44 50 52 57 62 54 43 39 16 19 27 31 25 18 16 13 9 9 11 18 21 35 15 21 14 9 14 12 11 22 17 17 25 16 27
40 40 37 37 43 40 39 35 32 32 30 39 49 51 60 61 36 7 6 5 11 13 22 21 18 13 13 12 18 14 33 25 17 23 15 10 9 8 16 18 30 35 29 28 32
46 43 40 41 43 44 42 42 40 37 34 36 38 42 55 47 12 9 9 5 10 12 15 20 16 12 12 21 20 20 25 27 10 13 11 12 7 10 25 18 10 21 23 34 38
48 45 46 47 44 45 46 44 42 45 43 37 37 36 40 26 30 26 31 32 28 22 19 19 23 20 18 12 17 22 27 19 31 17 19 12 23 18 22 32 17 14 22 30 38
49 50 50 51 48 48 50 53 55 53 50 44 47 42 40 23 34 15 23 29 24 26 27 21 13 22 16 15 25 5 24 37 19 21 22 18 28 15 26 33 39 34 30 31 38
41 46 49 49 49 52 55 56 57 52 51 50 37 40 51 56 56 58 46 59 39 34 35 30 26 18 10 17 21 13 19 21 27 29 15 16 32 39 52 39 32 31 48 45 42
40 40 43 47 48 50 56 60 58 57 54 52 43 32 42 26 44 51 39 41 54 48 42 35 23 28 29 13 6 12 12 24 12 27 16 26 49 32 39 48 58 59 53 46 54
43 45 41 43 48 51 54 61 69 63 39 31 23 16 28 24 25 33 28 32 28 39 41 27 19 26 15 27 20 21 24 26 24 27 15 34 34 31 39 35 42 43 54 56 53
42 43 42 45 46 50 54 64 64 27 13 16 7 15 15 18 21 25 35 27 25 13 25 25 22 23 28 31 35 25 17 25 22 14 21 25 42 33 14 19 33 42 47 41 45
44 46 42 45 49 47 52 64 33 12 47 22 41 48 68 57 52 29 15 36 30 16 29 35 25 43 56 51 36 35 40 35 22 14 19 34 43 45 44 52 45 48 44 46 52
46 41 41 47 40 39 37 22 18 26 29 47 45 54 62 56 72 74 68 30 24 25 31 31 56 44 35 44 45 42 40 42 21 9 19 20 36 37 38 40 53 56 60 58 52
48 44 44 41 39 32 19 26 29 36 19 19 21 24 21 29 24 45 55 64 54 47 40 52 32 46 34 35 46 53 54 42 28 5 13 15 34 42 36 49 58 55 60 59 59
45 43 38 41 22 8 18 28 33 24 11 12 6 8 16 15 11 60 46 59 56 56 48 43 58 55 49 58 50 51 40 36 27 15 23 5 23 40 20 35 40 54 56 62 62
41 41 37 32 28 24 22 21 25 7 13 5 5 14 20 10 32 63 51 61 65 60 22 41 23 55 55 56 45 38 20 28 36 32 29 34 16 28 21 40 48 36 49 59 64
36 38 32 31 28 19 15 16 14 2 14 13 17 17 32 58 52 41 37 35 35 57 63 63 25 30 62 41 43 19 18 12 9 16 18 47 33 36 39 35 39 34 51 57 55
38 36 31 30 20 19 15 11 4 9 5 11 12 21 37 48 48 29 31 39 20 21 43 56 60 38 21 44 39 42 38 12 11 12 31 11 29 48 25 18 29 28 37 37 39
38 38 35 31 22 20 9 3 12 6 15 23 25 34 39 35 21 37 37 40 51 45 28 36 40 63 32 50 41 53 45 16 21 17 23 12 25 16 30 35 41 57 46 26 25
41 39 38 23 15 17 9 10 9 11 10 13 30 28 32 16 31 45 27 42 20 45 28 23 39 25 53 41 43 43 43 49 8 5 5 19 28 23 27 27 24 39 34 43 48
40 37 27 2 5 20 6 17 11 9 8 15 15 10 32 40 29 29 26 24 23 31 33 24 18 46 47 40 36 38 47 30 17 19 16 20 23 24 12 27 26 27 25 36 42
30 14 6 3 15 11 8 10 11 24 19 12 24 34 39 37 30 26 18 44 44 45 42 36 27 14 33 34 45 33 33 41 36 19 21 14 15 11 31 10 6 8 17 26 36
16 7 7 12 10 2 6 8 7 26 19 15 11 21 25 30 34 29 45 36 41 49 38 43 12 23 25 44 51 47 47 49 25 36 21 7 9 6 13 14 13 7 3 5 18
10 12 15 22 9 9 6 9 10 22 25 8 15 16 21 26 19 22 40 38 58 22 16 24 12 23 12 20 21 39 45 50 49 29 27 20 9 6 12 7 7 4 3 17 23
11 5 9 24 26 8 6 14 9 11 19 19 25 29 26 19 24 25 48 25 13 12 21 24 14 15 28 15 22 44 45 43 49 26 40 33 11 3 10 10 6 7 9 17 25
16 10 12 5 14 19 17 12 27 23 20 27 15 23 26 18 36 31 39 40 24 11 9 6 10 13 25 13 15 36 45 49 39 52 32 29 18 7 8 5 2 4 12 24 25
18 11 9 16 9 15 27 31 37 43 21 30 28 38 28 28 28 36 40 21 11 12 10 7 5 10 14 5 9 7 31 37 37 38 36 1 13 1 4 2 11 10 16 26 28
42 41 35 30 15 13 25 33 38 30 33 55 43 36 33 33 38 28 37 44 27 20 25 12 11 11 6 16 1 7 5 23 34 31 32 22 18 2 6 10 15 15 22 25 31
Wind_Direction_500mb
4 356 352 343 339 341 0 356 339 337 341 342 344 340 331 321 312 308 308 287 282 279 280 279 264 268 255 225 227 210 234 241 238 220 230 186 224 197 216 194 185 204 215 208 190
5 358 355 352 343 328 323 329 338 340 333 333 336 338 333 328 320 317 291 295 277 260 258 255 257 242 233 219 199 224 237 241 248 239 246 218 233 216 197 202 203 212 221 205 182
11 10 6 355 352 352 342 319 307 313 332 328 325 331 330 336 328 221 248 332 3 289 251 249 245 223 221 215 207 205 241 244 243 229 239 233 231 231 231 219 215 208 205 206 191
7 8 5 0 357 354 349 339 330 308 302 314 325 320 323 341 302 219 231 293 324 324 279 247 223 205 218 214 215 239 244 238 255 226 202 235 233 234 232 232 212 208 193 213 204
356 356 357 354 352 348 345 343 335 325 309 296 302 321 314 310 271 266 268 276 284 294 283 251 218 217 225 219 213 237 245 242 242 253 239 232 239 239 242 240 234 201 209 216 216
347 347 345 346 346 341 340 337 335 335 335 301 282 292 307 258 286 311 294 279 282 270 260 252 239 237 265 239 222 274 253 250 243 238 237 235 247 217 240 248 244 241 232 226 222
337 335 337 336 338 336 335 333 334 333 327 316 310 281 282 260 277 295 285 280 267 265 258 242 251 236 247 246 242 258 262 252 237 232 239 226 253 237 242 242 245 239 241 234 231
333 328 327 324 328 330 330 328 327 329 325 304 300 283 272 282 293 293 311 297 269 250 252 249 235 246 236 270 217 227 233 247 226 197 224 198 256 247 235 230 241 245 243 240 235
330 325 324 325 323 324 324 322 325 327 322 309 290 250 274 293 313 325 344 314 303 247 240 240 235 221 208 227 241 213 242 230 260 200 202 203 260 254 237 226 234 240 241 240 240
335 326 331 326 325 326 327 323 327 327 10 19 35 305 266 334 342 323 331 337 320 265 225 223 216 220 212 203 217 218 225 222 230 190 219 216 245 249 218 219 237 244 243 241 240
337 340 335 328 332 329 326 339 1 349 331 275 288 274 275 275 280 283 333 328 311 252 213 203 218 217 214 214 227 250 237 235 226 214 209 233 250 255 250 253 247 250 247 242 240
343 340 333 326 332 332 336 18 10 331 301 293 267 272 282 290 282 274 277 281 275 267 241 227 232 230 233 223 224 228 235 239 262 183 210 253 262 258 256 251 249 241 243 242 243
338 335 334 331 326 334 343 353 353 340 293 304 273 271 313 315 288 315 280 253 245 257 245 234 235 222 226 213 216 222 226 228 240 155 228 281 270 262 250 244 248 242 244 244 241
331 331 338 331 340 345 333 341 352 353 297 299 235 220 326 10 243 335 324 254 249 247 240 252 242 247 221 223 213 227 224 241 242 249 251 206 279 266 240 246 238 239 235 238 237
333 338 334 328 311 290 306 320 339 9 306 315 262 311 344 31 302 308 307 298 250 239 220 224 218 216 232 228 217 235 203 209 227 245 274 245 265 266 238 241 245 233 233 234 236
325 328 320 317 312 311 294 292 325 183 252 301 303 337 344 322 316 312 326 345 272 237 239 247 239 231 232 223 222 172 150 146 195 225 246 236 224 262 243 232 248 245 239 238 237
324 321 320 309 302 308 309 303 197 211 347 269 321 337 324 319 319 345 327 310 304 254 223 233 237 242 231 207 200 193 179 169 186 190 239 183 217 241 255 236 246 259 250 240 241
322 322 317 303 290 273 277 160 238 209 256 313 320 315 309 322 310 326 310 307 308 298 263 213 225 224 202 210 203 202 184 184 192 202 231 133 233 248 234 248 253 244 250 234 217
325 327 317 310 250 243 182 230 252 233 261 297 319 313 306 314 319 316 336 294 298 324 232 243 226 212 205 204 207 201 209 210 113 60 219 216 244 275 260 261 231 240 232 233 235
330 329 314 10 196 193 197 250 245 222 286 292 287 269 295 309 317 323 316 295 290 301 295 291 279 208 196 208 216 191 203 195 215 206 223 225 243 242 226 245 245 244 223 236 236
327 323 268 216 157 194 235 243 271 268 243 240 285 287 290 299 294 298 277 293 281 291 312 277 235 260 184 196 196 196 196 208 215 228 222 250 238 213 233 255 274 271 296 241 226
311 268 253 201 193 220 235 213 255 281 266 273 268 273 277 293 288 285 277 260 281 303 294 279 274 239 241 213 204 204 203 204 205 205 229 301 250 346 308 297 268 292 286 161 168
245 246 263 206 240 221 241 259 251 278 278 258 272 267 279 286 289 268 282 284 278 280 315 336 213 231 187 222 213 210 211 207 221 227 216 212 199 350 354 357 41 108 120 135 144
273 258 224 219 232 243 236 258 256 264 265 252 265 287 280 269 268 288 297 298 273 257 293 311 296 253 231 248 184 201 207 215 216 214 225 218 223 105 348 346 34 84 131 121 130
225 228 218 211 242 218 227 249 276 271 251 278 282 252 269 289 303 297 315 308 276 274 269 237 290 329 281 270 288 211 197 211 220 225 222 219 212 236 359 340 42 114 146 127 128
275 275 260 262 243 237 247 254 258 267 244 282 246 277 278 278 282 311 325 328 351 311 284 303 292 291 8 317 34 295 223 209 216 224 240 114 224 30 95 75 89 113 145 123 125
278 266 246 259 241 224 239 244 256 260 268 252 261 277 281 283 288 272 289 279 288 304 314 314 319 341 344 330 208 269 317 227 219 220 225 217 226 210 144 144 120 126 112 112 119
Wind_Speed_850mb
27 27 29 27 25 23 22 34 40 48 48 52 53 54 53 47 44 41 39 26 36 34 28 20 20 17 14 11 17 10 15 27 35 24 18 11 15 13 10 13 14 15 6 10 23
31 36 29 33 32 29 29 23 27 34 44 50 52 57 62 54 43 39 16 19 27 31 25 18 16 13 9 9 11 18 21 35 15 21 14 9 14 12 11 22 17 17 25 16 27
40 40 37 37 43 40 39 35 32 32 30 39 49 51 60 61 36 7 6 5 11 13 22 21 18 13 13 12 18 14 33 25 17 23 15 10 9 8 16 18 30 35 29 28 32
46 43 40 41 43 44 42 42 40 37 34 36 38 42 55 47 12 9 9 5 10 12 15 20 16 12 12 21 20 20 25 27 10 13 11 12 7 10 25 18 10 21 23 34 38
48 45 46 47 44 45 46 44 42 45 43 37 37 36 40 26 30 26 31 32 28 22 19 19 23 20 18 12 17 22 27 19 31 17 19 12 23 18 22 32 17 14 22 30 38
49 50 50 51 48 48 50 53 55 53 50 44 47 42 40 23 34 15 23 29 24 26 27 21 13 22 16 15 25 5 24 37 19 21 22 18 28 15 26 33 39 34 30 31 38
41 46 49 49 49 52 55 56 57 52 51 50 37 40 51 56 56 58 46 59 39 34 35 30 26 18 10 17 21 13 19 21 27 29 15 16 32 39 52 39 32 31 48 45 42
40 40 43 47 48 50 56 60 58 57 54 52 43 32 42 26 44 51 39 41 54 48 42 35 23 28 29 13 6 12 12 24 12 27 16 26 49 32 39 48 58 59 53 46 54
43 45 41 43 48 51 54 61 69 63 39 31 23 16 28 24 25 33 28 32 28 39 41 27 19 26 15 27 20 21 24 26 24 27 15 34 34 31 39 35 42 43 54 56 53
42 43 42 45 46 50 54 64 64 27 13 16 7 15 15 18 21 25 35 27 25 13 25 25 22 23 28 31 35 25 17 25 22 14 21 25 42 33 14 19 33 42 47 41 45
44 46 42 45 49 47 52 64 33 12 47 22 41 48 68 57 52 29 15 36 30 16 29 35 25 43 56 51 36 35 40 35 22 14 19 34 43 45 44 52 45 48 44 46 52
46 41 41 47 40 39 37 22 18 26 29 47 45 54 62 56 72 74 68 30 24 25 31 31 56 44 35 44 45 42 40 42 21 9 19 20 36 37 38 40 53 56 60 58 52
48 44 44 41 39 32 19 26 29 36 19 19 21 24 21 29 24 45 55 64 54 47 40 52 32 46 34 35 46 53 54 42 28 5 13 15 34 42 36 49 58 55 60 59 59
45 43 38 41 22 8 18 28 33 24 11 12 6 8 16 15 11 60 46 59 56 56 48 43 58 55 49 58 50 51 40 36 27 15 23 5 23 40 20 35 40 54 56 62 62
41 41 37 32 28 24 22 21 25 7 13 5 5 14 20 10 32 63 51 61 65 60 22 41 23 55 55 56 45 38 20 28 36 32 29 34 16 28 21 40 48 36 49 59 64
36 38 32 31 28 19 15 16 14 2 14 13 17 17 32 58 52 41 37 35 35 57 63 63 25 30 62 41 43 19 18 12 9 16 18 47 33 36 39 35 39 34 51 57 55
38 36 31 30 20 19 15 11 4 9 5 11 12 21 37 48 48 29 31 39 20 21 43 56 60 38 21 44 39 42 38 12 11 12 31 11 29 48 25 18 29 28 37 37 39
38 38 35 31 22 20 9 3 12 6 15 23 25 34 39 35 21 37 37 40 51 45 28 36 40 63 32 50 41 53 45 16 21 17 23 12 25 16 30 35 41 57 46 26 25
41 39 38 23 15 17 9 10 9 11 10 13 30 28 32 16 31 45 27 42 20 45 28 23 39 25 53 41 43 43 43 49 8 5 5 19 28 23 27 27 24 39 34 43 48
40 37 27 2 5 20 6 17 11 9 8 15 15 10 32 40 29 29 26 24 23 31 33 24 18 46 47 40 36 38 47 30 17 19 16 20 23 24 12 27 26 27 25 36 42
30 14 6 3 15 11 8 10 11 24 19 12 24 34 39 37 30 26 18 44 44 45 42 36 27 14 33 34 45 33 33 41 36 19 21 14 15 11 31 10 6 8 17 26 36
16 7 7 12 10 2 6 8 7 26 19 15 11 21 25 30 34 29 45 36 41 49 38 43 12 23 25 44 51 47 47 49 25 36 21 7 9 6 13 14 13 7 3 5 18
10 12 15 22 9 9 6 9 10 22 25 8 15 16 21 26 19 22 40 38 58 22 16 24 12 23 12 20 21 39 45 50 49 29 27 20 9 6 12 7 7 4 3 17 23
11 5 9 24 26 8 6 14 9 11 19 19 25 29 26 19 24 25 48 25 13 12 21 24 14 15 28 15 22 44 45 43 49 26 40 33 11 3 10 10 6 7 9 17 25
16 10 12 5 14 19 17 12 27 23 20 27 15 23 26 18 36 31 39 40 24 11 9 6 10 13 25 13 15 36 45 49 39 52 32 29 18 7 8 5 2 4 12 24 25
18 11 9 16 9 15 27 31 37 43 21 30 28 38 28 28 28 36 40 21 11 12 10 7 5 10 14 5 9 7 31 37 37 38 36 1 13 1 4 2 11 10 16 26 28
42 41 35 30 15 13 25 33 38 30 33 55 43 36 33 33 38 28 37 44 27 20 25 12 11 11 6 16 1 7 5 23 34 31 32 22 18 2 6 10 15 15 22 25 31
Wind_Direction_850mb
4 356 352 343 339 341 0 356 339 337 341 342 344 340 331 321 312 308 308 287 282 279 280 279 264 268 255 225 227 210 234 241 238 220 230 186 224 197 216 194 185 204 215 208 190
5 358 355 352 343 328 323 329 338 340 333 333 336 338 333 328 320 317 291 295 277 260 258 255 257 242 233 219 199 224 237 241 248 239 246 218 233 216 197 202 203 212 221 205 182
11 10 6 355 352 352 342 319 307 313 332 328 325 331 330 336 328 221 248 332 3 289 251 249 245 223 221 215 207 205 241 244 243 229 239 233 231 231 231 219 215 208 205 206 191
7 8 5 0 357 354 349 339 330 308 302 314 325 320 323 341 302 219 231 293 324 324 279 247 223 205 218 214 215 239 244 238 255 226 202 235 233 234 232 232 212 208 193 213 204
356 356 357 354 352 348 345 343 335 325 309 296 302 321 314 310 271 266 268 276 284 294 283 251 218 217 225 219 213 237 245 242 242 253 239 232 239 239 242 240 234 201 209 216 216
347 347 345 346 346 341 340 337 335 335 335 301 282 292 307 258 286 311 294 279 282 270 260 252 239 237 265 239 222 274 253 250 243 238 237 235 247 217 240 248 244 241 232 226 222
337 335 337 336 338 336 335 333 334 333 327 316 310 281 282 260 277 295 285 280 267 265 258 242 251 236 247 246 242 258 262 252 237 232 239 226 253 237 242 242 245 239 241 234 231
333 328 327 324 328 330 330 328 327 329 325 304 300 283 272 282 293 293 311 297 269 250 252 249 235 246 236 270 217 227 233 247 226 197 224 198 256 247 235 230 241 245 243 240 235
330 325 324 325 323 324 324 322 325 327 322 309 290 250 274 293 313 325 344 314 303 247 240 240 235 221 208 227 241 213 242 230 260 200 202 203 260 254 237 226 234 240 241 240 240
335 326 331 326 325 326 327 323 327 327 10 19 35 305 266 334 342 323 331 337 320 265 225 223 216 220 212 203 217 218 225 222 230 190 219 216 245 249 218 219 237 244 243 241 240
337 340 335 328 332 329 326 339 1 349 331 275 288 274 275 275 280 283 333 328 311 252 213 203 218 217 214 214 227 250 237 235 226 214 209 233 250 255 250 253 247 250 247 242 240
343 340 333 326 332 332 336 18 10 331 301 293 267 272 282 290 282 274 277 281 275 267 241 227 232 230 233 223 224 228 235 239 262 183 210 253 262 258 256 251 249 241 243 242 243
338 335 334 331 326 334 343 353 353 340 293 304 273 271 313 315 288 315 280 253 245 257 245 234 235 222 226 213 216 222 226 228 240 155 228 281 270 262 250 244 248 242 244 244 241
331 331 338 331 340 345 333 341 352 353 297 299 235 220 326 10 243 335 324 254 249 247 240 252 242 247 221 223 213 227 224 241 242 249 251 206 279 266 240 246 238 239 235 238 237
333 338 334 328 311 290 306 320 339 9 306 315 262 311 344 31 302 308 307 298 250 239 220 224 218 216 232 228 217 235 203 209 227 245 274 245 265 266 238 241 245 233 233 234 236
325 328 320 317 312 311 294 292 325 183 252 301 303 337 344 322 316 312 326 345 272 237 239 247 239 231 232 223 222 172 150 146 195 225 246 236 224 262 243 232 248 245 239 238 237
324 321 320 309 302 308 309 303 197 211 347 269 321 337 324 319 319 345 327 310 304 254 223 233 237 242 231 207 200 193 179 169 186 190 239 183 217 241 255 236 246 259 250 240 241
322 322 317 303 290 273 277 160 238 209 256 313 320 315 309 322 310 326 310 307 308 298 263 213 225 224 202 210 203 202 184 184 192 202 231 133 233 248 234 248 253 244 250 234 217
325 327 317 310 250 243 182 230 252 233 261 297 319 313 306 314 319 316 336 294 298 324 232 243 226 212 205 204 207 201 209 210 113 60 219 216 244 275 260 261 231 240 232 233 235
330 329 314 10 196 193 197 250 245 222 286 292 287 269 295 309 317 323 316 295 290 301 295 291 279 208 196 208 216 191 203 195 215 206 223 225 243 242 226 245 245 244 223 236 236
327 323 268 216 157 194 235 243 271 268 243 240 285 287 290 299 294 298 277 293 281 291 312 277 235 260 184 196 196 196 196 208 215 228 222 250 238 213 233 255 274 271 296 241 226
311 268 253 201 193 220 235 213 255 281 266 273 268 273 277 293 288 285 277 260 281 303 294 279 274 239 241 213 204 204 203 204 205 205 229 301 250 346 308 297 268 292 286 161 168
245 246 263 206 240 221 241 259 251 278 278 258 272 267 279 286 289 268 282 284 278 280 315 336 213 231 187 222 213 210 211 207 221 227 216 212 199 350 354 357 41 108 120 135 144
273 258 224 219 232 243 236 258 256 264 265 252 265 287 280 269 268 288 297 298 273 257 293 311 296 253 231 248 184 201 207 215 216 214 225 218 223 105 348 346 34 84 131 121 130
225 228 218 211 242 218 227 249 276 271 251 278 282 252 269 289 303 297 315 308 276 274 269 237 290 329 281 270 288 211 197 211 220 225 222 219 212 236 359 340 42 114 146 127 128
275 275 260 262 243 237 247 254 258 267 244 282 246 277 278 278 282 311 325 328 351 311 284 303 292 291 8 317 34 295 223 209 216 224 240 114 224 30 95 75 89 113 145 123 125
278 266 246 259 241 224 239 244 256 260 268 252 261 277 281 283 288 272 289 279 288 304 314 314 319 341 344 330 208 269 317 227 219 220 225 217 226 210 144 144 120 126 112 112 119